Flag for U.S.A. Weather past 2 weeks in Yonkers, New York, U.S.A.

Now
75 °F

Clear.


Feels Like: 74 °F
Forecast: 72 / 86 °F
Wind: No wind

Location: Teterboro Airport

Current Time: Jul 31, 2015 at 1:53:43 AM

Latest Report: Jul 31, 2015 at 12:51 AM


Visibility: 7 mi

Pressure: 29.83 "Hg

Humidity: 88%

Dew point: 71 °F

Location of YonkersLocation

Historic Weather in Yonkers — Graph

°F

Yonkers temperature yesterday

Maximum temperature yesterday: 87 °F (at 1:51 PM)
Minimum temperature yesterday: 75 °F (at 11:58 PM)
Average temperature yesterday: 81 °F

Past Weeks' High & Low Weather Summary

 TemperatureHumidityPressure
High95 °F (Jul 19, 4:51 PM)89% (Jul 30, 11:58 PM)30.10 "Hg (Jul 30, 11:58 PM)
Low64 °F (Jul 16, 4:51 AM)26% (Jul 28, 4:51 PM)29.55 "Hg (Jul 21, 5:51 PM)
Average79 °F55%29.89 "Hg
* Reported Jul 16 12:51 AM — Jul 31 12:51 AM, Yonkers, Weather by CustomWeather, © 2015

Note: Actual official high and low records may vary slightly from our data, if they occured in-between our weather recording intervals... More about our weather records

Advertising

Yonkers weather history for previous 24 hours

 ConditionsComfort  
Time TempWeatherWind HumidityBarometerVisibility
12:51 AM
Fri, Jul 31
75 °FClear.No wind88%29.83 "Hg7 mi
11:58 PM
Thu, Jul 30
75 °FClear.5 mph89%29.83 "Hg7 mi
10:51 PM77 °FPassing clouds.3 mph85%29.83 "Hg10 mi
9:51 PM78 °FPassing clouds.6 mph82%29.82 "Hg10 mi
8:51 PM79 °FOvercast.7 mph79%29.80 "Hg10 mi
7:51 PM80 °FOvercast.8 mph76%29.80 "Hg10 mi
6:51 PM87 °FPassing clouds.12 mph61%29.79 "Hg10 mi
5:51 PM81 °FSunny.10 mph72%29.79 "Hg8 mi
4:51 PM82 °FLight rain. More clouds than sun.10 mph70%29.78 "Hg5 mi
3:51 PM85 °FPassing clouds.7 mph70%29.78 "Hg7 mi
2:51 PM86 °FHaze.10 mph65%29.80 "Hg6 mi
1:51 PM87 °FBroken clouds.3 mph69%29.82 "Hg10 mi
12:51 PM86 °FMostly cloudy.8 mph65%29.84 "Hg10 mi
11:51 AM83 °FOvercast.12 mph72%29.86 "Hg10 mi
10:51 AM82 °FOvercast.13 mph72%29.87 "Hg6 mi
9:51 AM81 °FLight rain. Mostly cloudy.10 mph74%29.87 "Hg6 mi
8:51 AM79 °FLight rain. Overcast.8 mph79%29.89 "Hg10 mi
7:51 AM79 °FPartly sunny.7 mph79%29.90 "Hg10 mi
6:51 AM79 °FMostly cloudy.10 mph77%29.90 "Hg10 mi
5:51 AM78 °FPassing clouds.7 mph79%29.89 "Hg10 mi
4:51 AM78 °FClear.8 mph79%29.89 "Hg10 mi
3:51 AM78 °FClear.5 mph79%29.90 "Hg10 mi
2:51 AM79 °FClear.7 mph77%29.91 "Hg10 mi
1:51 AM80 °FClear.6 mph74%29.91 "Hg10 mi
Weather by CustomWeather, © 2015

See weather overviewHow to use our weather pages